Location: Glenbow
(51.1592°N, 114.3828°W)
Time: 19:59:28
(UTC+00:00)

Envisat - Pass Details

Date: 01 December 2021
Orbit: 764 x 766 km, 98.2° (Epoch: 26 January)

Event Time Altitude Azimuth Distance (km) Brightness Sun altitude
Rises 00:19:32 0° 187° (S) 3,221 6.7 -7.0°
Reaches altitude 10° 00:21:59 10° 196° (SSW) 2,299 6.1 -7.3°
Maximum altitude 00:26:41 38° 264° (W) 1,166 4.7 -8.0°
Drops below altitude 10° 00:31:25 10° 332° (NNW) 2,316 5.6 -8.7°
Sets 00:33:54 0° 340° (NNW) 3,248 6.2 -9.0°
